GW7941 Weather Reports


time (UTC)temp
C
wind
direction
speed
KPH
gust
KPH
rain 1hr
cm
rain 24hr
cm
rain mn
cm
humidity
%
barometer
mb
20260902223819 13 91 1.6 6.4 0.61 0.61 0.61 95 1005.1
20260902223314 13 88 3.2 6.4 1.85 0.58 0.58 95 1005.0
20260902222813 15 199 4.8 6.4 1.27 0.48 0.48 94 1005.3
20260902222313 15 244 4.8 11.3 0.00 0.28 0.28 96 1005.1
20260902221812 15 173 8.0 16.1 0.00 0.28 0.28 96 1004.4
20260902221312 15 100 4.8 16.1 0.00 0.28 0.28 96 1004.4
20260902220808 15 97 9.7 14.5 0.00 0.28 0.28 96 1004.3
20260902220307 15 127 3.2 9.7 0.00 0.28 0.28 96 1004.3
20260902215803 15 145 6.4 14.5 0.00 0.28 0.28 96 1004.3
20260902215258 15 136 6.4 14.5 0.00 0.28 0.28 96 1004.2
20260902214754 15 137 8.0 16.1 0.00 0.28 0.28 96 1004.5
20260902214252 15 193 9.7 14.5 0.00 0.28 0.28 96 1004.3
20260902213748 15 77 8.0 22.5 0.00 0.28 0.28 96 1004.2
20260902213248 15 143 16.1 25.7 0.00 0.28 0.28 96 1004.3
20260902212747 15 117 9.7 14.5 0.00 0.28 0.28 96 1004.3
20260902212244 15 187 3.2 11.3 0.13 0.28 0.28 96 1004.5
20260902211740 15 172 4.8 16.1 0.13 0.28 0.28 95 1004.3
20260902211236 15 150 9.7 14.5 0.00 0.25 0.25 94 1004.1
20260902210735 15 145 6.4 16.1 0.00 0.25 0.25 94 1004.2
20260902210231 15 137 3.2 20.9 0.00 0.25 0.25 94 1003.9
20260902205728 15 96 4.8 9.7 0.00 0.25 0.25 95 1004.0
20260902205224 15 90 8.0 11.3 0.00 0.25 0.25 94 1004.0
20260902204719 15 120 11.3 16.1 0.00 0.25 0.25 94 1003.9
20260902204215 14 134 9.7 17.7 0.00 0.25 0.25 95 1003.9
20260902203710 14 94 9.7 14.5 0.00 0.25 0.25 96 1004.0
20260902203209 14 75 3.2 12.9 0.00 0.25 0.25 96 1004.0
20260902202704 15 85 9.7 14.5 0.18 0.25 0.25 96 1004.1
20260902202201 15 119 4.8 16.1 0.18 0.25 0.25 95 1004.1
20260902201657 15 76 6.4 25.7 0.00 0.23 0.23 94 1004.0
20260902201156 15 136 6.4 29.0 0.13 0.23 0.23 94 1004.5
20260902200651 15 95 6.4 14.5 0.13 0.23 0.23 94 1004.0
20260902200147 15 182 4.8 11.3 0.00 0.20 0.20 93 1004.4
20260902195643 15 88 3.2 12.9 0.18 0.20 0.20 93 1004.3
20260902195142 15 348 4.8 14.5 0.18 0.20 0.20 93 1004.5
20260902194641 15 143 9.7 14.5 0.00 0.18 0.18 93 1004.5
20260902194136 15 140 6.4 14.5 0.00 0.18 0.18 93 1004.4
20260902193633 15 75 4.8 4.8 0.00 0.18 0.18 94 1004.6
20260902193132 15 115 8.0 11.3 0.13 0.18 0.18 94 1004.5
20260902192631 15 72 4.8 6.4 0.13 0.18 0.18 94 1004.4
20260902192130 15 170 6.4 17.7 0.00 0.15 0.15 94 1004.8
20260902191626 15 154 1.6 11.3 0.18 0.15 0.15 94 1004.5
20260902191125 15 156 4.8 11.3 0.18 0.15 0.15 94 1004.6
20260902190621 15 43 6.4 12.9 0.00 0.13 0.13 94 1004.5
20260902190116 15 88 4.8 11.3 0.00 0.13 0.13 95 1004.8
20260902185612 15 45 4.8 6.4 0.13 0.13 0.13 95 1004.9
20260902185108 15 131 4.8 9.7 0.13 0.13 0.13 94 1005.2
20260902184603 15 78 1.6 4.8 0.18 0.10 0.10 95 1004.9
20260902184057 15 111 3.2 14.5 0.18 0.10 0.10 93 1005.1
20260902183554 15 123 6.4 9.7 0.00 0.08 0.08 94 1005.2
20260902183050 15 178 6.4 11.3 0.00 0.08 0.08 94 1005.2
20260902182546 15 73 1.6 6.4 0.13 0.08 0.08 94 1005.2
20260902182043 15 90 1.6 4.8 0.13 0.08 0.08 95 1005.4
20260902181538 15 91 3.2 4.8 0.00 0.05 0.05 95 1005.4
20260902181037 15 85 1.6 6.4 0.00 0.05 0.05 94 1005.6
20260902180532 15 138 3.2 6.4 0.18 0.05 0.05 94 1005.6
20260902180028 15 155 1.6 6.4 0.18 0.05 0.05 94 1005.5
20260902175528 15 40 4.8 6.4 0.00 0.03 0.03 93 1005.7
20260902175024 15 98 0.0 3.2 0.00 0.03 0.03 94 1005.7
20260902174520 15 96 3.2 4.8 0.00 0.03 0.03 93 1005.5
20260902174015 15 140 1.6 4.8 0.18 0.03 0.03 92 1005.7
20260902173515 15 88 4.8 6.4 0.18 0.03 0.03 90 1005.6
20260902173015 16 156 4.8 6.4 0.00 0.00 0.00 89 1005.7
20260902172515 16 173 3.2 4.8 0.00 0.00 0.00 88 1005.6
20260902172010 16 98 1.6 4.8 0.00 0.00 0.00 87 1005.5
20260902171506 16 161 4.8 4.8 0.00 0.00 0.00 87 1005.6
20260902171002 16 70 3.2 9.7 0.00 0.00 0.00 86 1005.6
20260902170456 16 123 4.8 4.8 0.00 0.00 0.00 86 1005.4
20260902165952 16 61 1.6 4.8 0.00 0.00 0.00 86 1005.4
20260902165451 16 109 3.2 4.8 0.00 0.00 0.00 86 1005.3
20260902164946 16 107 8.0 12.9 0.00 0.00 0.00 85 1005.6
20260902164441 16 102 3.2 9.7 0.00 0.00 0.00 84 1005.5
20260902163940 16 149 0.0 12.9 0.00 0.00 0.00 83 1005.5
20260902163436 16 134 6.4 14.5 0.00 0.00 0.00 82 1005.5
20260902162933 16 142 3.2 6.4 0.00 0.00 0.00 82 1005.4
20260902162429 17 184 9.7 16.1 0.00 0.00 0.00 82 1005.7
20260902161928 17 99 1.6 3.2 0.00 0.00 0.00 81 1005.6
20260902161424 17 99 1.6 6.4 0.00 0.00 0.00 80 1005.5
20260902160920 17 146 4.8 6.4 0.00 0.00 0.00 80 1005.5
20260902160415 17 114 6.4 9.7 0.00 0.00 0.00 80 1005.7
20260902155913 17 92 1.6 9.7 0.00 0.00 0.00 80 1005.5
20260902155408 17 152 1.6 6.4 0.00 0.00 0.00 80 1005.6
20260902154902 17 117 3.2 4.8 0.00 0.00 0.00 80 1005.6
20260902154358 17 92 1.6 4.8 0.00 0.00 0.00 81 1005.7
20260902153857 17 125 1.6 6.4 0.00 0.00 0.00 80 1005.6
20260902153356 17 91 3.2 6.4 0.00 0.00 0.00 80 1005.6
20260902152852 16 178 3.2 4.8 0.00 0.00 0.00 81 1005.8
20260902152348 16 156 4.8 6.4 0.00 0.00 0.00 81 1005.6
20260902151843 16 60 1.6 4.8 0.00 0.00 0.00 82 1005.9
20260902151339 16 84 4.8 9.7 0.00 0.00 0.00 82 1006.0
20260902150839 16 60 3.2 6.4 0.00 0.00 0.00 83 1006.1
20260902150335 16 99 4.8 6.4 0.00 0.00 0.00 83 1006.0
20260902145834 16 130 1.6 9.7 0.00 0.00 0.00 84 1006.2
20260902145330 16 120 3.2 4.8 0.00 0.00 0.00 84 1006.3
20260902144825 16 109 3.2 6.4 0.00 0.00 0.00 84 1006.3
20260902144322 16 78 3.2 9.7 0.00 0.00 0.00 84 1006.3
20260902143816 15 129 3.2 4.8 0.00 0.00 0.00 85 1006.3
20260902143311 15 73 0.0 3.2 0.00 0.00 0.00 86 1006.4
20260902142807 15 160 0.0 0.0 0.00 0.00 0.00 86 1006.4
20260902142305 15 72 0.0 3.2 0.00 0.00 0.00 86 1006.6
20260902141802 15 68 0.0 3.2 0.00 0.00 0.00 87 1006.3
20260902141258 15 107 0.0 1.6 0.00 0.00 0.00 88 1006.5
20260902140758 15 77 0.0 3.2 0.00 0.00 0.00 87 1006.4
20260902140253 15 50 0.0 3.2 0.00 0.00 0.00 88 1006.7
20260902135752 15 55 0.0 1.6 0.00 0.00 0.00 88 1006.8
20260902135248 15 90 0.0 0.0 0.00 0.00 0.00 89 1007.1
20260902134748 15 89 0.0 3.2 0.00 0.00 0.00 89 1007.3
20260902134243 15 153 0.0 0.0 0.00 0.00 0.00 89 1007.0
20260902133739 15 31 1.6 3.2 0.00 0.00 0.00 89 1007.2
20260902133238 15 69 0.0 0.0 0.00 0.00 0.00 88 1007.1
20260902132733 15 91 1.6 3.2 0.00 0.00 0.00 88 1007.2
20260902132229 15 124 1.6 3.2 0.00 0.00 0.00 88 1007.1
20260902131724 15 62 0.0 1.6 0.00 0.00 0.00 88 1007.3
20260902131220 15 46 1.6 3.2 0.00 0.00 0.00 88 1007.5
20260902130720 15 125 1.6 3.2 0.00 0.00 0.00 88 1007.4
20260902130216 15 59 0.0 3.2 0.00 0.00 0.00 89 1007.4
20260902125711 15 61 1.6 4.8 0.00 0.00 0.00 89 1007.5
20260902125208 15 74 3.2 4.8 0.00 0.00 0.00 89 1007.6
20260902124704 15 74 1.6 3.2 0.00 0.00 0.00 90 1007.8
20260902124204 15 114 0.0 3.2 0.00 0.00 0.00 90 1007.6
20260902123659 15 56 0.0 1.6 0.00 0.00 0.00 89 1007.7
20260902123155 15 128 0.0 6.4 0.00 0.00 0.00 87 1007.9
20260902122654 15 137 0.0 4.8 0.00 0.00 0.00 88 1008.0
20260902122150 15 141 0.0 9.7 0.00 0.00 0.00 88 1007.9
20260902121644 15 96 3.2 6.4 0.00 0.00 0.00 90 1007.9
20260902121139 15 119 0.0 0.0 0.00 0.00 0.00 91 1008.0
20260902120635 15 134 1.6 3.2 0.00 0.00 0.00 90 1008.0
20260902120132 15 172 1.6 6.4 0.00 0.00 0.00 91 1008.2
20260902115625 15 150 0.0 3.2 0.00 0.00 0.00 91 1007.9
20260902115122 15 82 4.8 4.8 0.00 0.00 0.00 91 1008.0
20260902114618 15 147 3.2 4.8 0.00 0.00 0.00 91 1008.2
20260902114117 15 100 3.2 4.8 0.00 0.00 0.00 92 1008.1
20260902113614 15 91 0.0 1.6 0.00 0.00 0.00 92 1008.2
20260902113114 15 100 0.0 1.6 0.00 0.00 0.00 92 1008.1
20260902112609 15 84 0.0 1.6 0.00 0.00 0.00 91 1008.2
20260902112106 15 110 3.2 9.7 0.00 0.00 0.00 90 1008.2
20260902111601 15 143 4.8 11.3 0.00 0.00 0.00 90 1008.3
20260902111057 15 166 3.2 9.7 0.00 0.00 0.00 90 1008.4
20260902110553 15 130 4.8 9.7 0.00 0.00 0.00 91 1008.5
20260902110049 15 150 0.0 6.4 0.00 0.00 0.00 93 1008.5
20260902105543 15 133 0.0 0.0 0.00 0.00 0.00 94 1008.4
20260902105043 15 96 0.0 0.0 0.00 0.00 0.00 94 1008.7
20260902104539 15 66 0.0 0.0 0.00 0.00 0.00 94 1008.6
20260902104038 14 112 0.0 1.6 0.00 0.00 0.00 95 1008.5
20260902103534 14 76 0.0 1.6 0.00 0.00 0.00 95 1008.6
20260902103029 14 77 0.0 1.6 0.00 0.00 0.00 95 1008.5
20260902102526 14 112 0.0 3.2 0.00 0.00 0.00 95 1008.5
20260902102023 14 74 0.0 1.6 0.00 0.00 0.00 95 1008.5
20260902101518 14 123 0.0 1.6 0.00 0.00 0.00 95 1008.5
20260902101016 14 161 0.0 3.2 0.00 0.00 0.00 95 1008.7
20260902100512 14 82 1.6 3.2 0.00 0.00 0.00 96 1008.7
20260902100012 14 105 0.0 3.2 0.00 0.00 0.00 97 1008.8
20260902095511 13 85 0.0 1.6 0.00 0.00 0.00 99 1008.6
20260902095010 13 131 1.6 3.2 0.00 0.00 0.00 99 1008.8
20260902094506 13 88 0.0 0.0 0.00 0.00 0.00 99 1008.9
20260902094001 14 131 0.0 0.0 0.00 0.00 0.00 99 1008.9
20260902093456 14 97 0.0 0.0 0.00 0.00 0.00 99 1008.8
20260902092955 14 87 0.0 0.0 0.00 0.00 0.00 99 1009.1
20260902092451 14 91 0.0 0.0 0.00 0.00 0.00 99 1009.1
20260902091950 14 58 0.0 3.2 0.00 0.00 0.00 99 1009.0
20260902091446 13 104 0.0 0.0 0.00 0.00 0.00 99 1009.1
20260902090942 13 87 0.0 0.0 0.00 0.00 0.00 99 1009.2
20260902090437 13 123 0.0 0.0 0.00 0.00 0.00 99 1009.1
20260902085936 13 133 0.0 0.0 0.00 0.00 0.00 99 1009.3
20260902085431 13 131 0.0 0.0 0.00 0.00 0.00 99 1009.3
20260902084926 13 131 0.0 0.0 0.00 0.00 0.00 99 1009.5
20260902084423 13 131 0.0 0.0 0.00 0.00 0.00 99 1009.4
20260902083919 13 131 0.0 0.0 0.00 0.00 0.00 99 1009.5
20260902083418 13 131 0.0 0.0 0.00 0.00 0.00 99 1009.4
20260902082913 13 131 0.0 0.0 0.00 0.00 0.00 99 1009.6
20260902082409 13 131 0.0 0.0 0.00 0.00 0.00 99 1009.6
20260902081906 13 133 0.0 0.0 0.00 0.00 0.00 99 1009.7
20260902081401 13 164 0.0 0.0 0.00 0.00 0.00 99 1009.6
20260902080856 13 192 0.0 0.0 0.00 0.00 0.00 99 1009.4
20260902080353 13 182 0.0 0.0 0.00 0.00 0.00 99 1009.5
20260902075852 12 126 0.0 0.0 0.00 0.00 0.00 99 1009.7
20260902075348 12 124 0.0 0.0 0.00 0.00 0.00 99 1009.7
20260902074843 12 124 0.0 0.0 0.00 0.00 0.00 99 1009.8
20260902074339 12 124 0.0 0.0 0.00 0.00 0.00 99 1009.9
20260902073833 12 124 0.0 0.0 0.00 0.00 0.00 99 1009.8
20260902073330 12 124 0.0 0.0 0.00 0.00 0.00 99 1009.8
20260902072826 12 124 0.0 0.0 0.00 0.00 0.00 99 1009.9
20260902072321 12 129 0.0 0.0 0.00 0.00 0.00 99 1009.9
20260902071817 13 129 0.0 0.0 0.00 0.00 0.00 99 1010.0
20260902071312 13 129 0.0 0.0 0.00 0.00 0.00 99 1009.9
20260902070808 12 129 0.0 0.0 0.00 0.00 0.00 99 1009.9
20260902070308 12 129 0.0 0.0 0.00 0.00 0.00 99 1009.8
20260902065807 12 129 0.0 0.0 0.00 0.00 0.00 99 1009.9
20260902065306 12 129 0.0 0.0 0.00 0.00 0.00 99 1010.0
20260902064758 12 129 0.0 0.0 0.00 0.00 0.00 99 1010.1
20260902064253 12 129 0.0 0.0 0.00 0.00 0.00 99 1010.0
20260902063749 12 128 0.0 0.0 0.00 0.00 0.00 99 1009.9
20260902063243 12 131 0.0 0.0 0.00 0.00 0.00 99 1009.9
20260902062743 12 131 0.0 0.0 0.00 0.00 0.00 99 1009.9
20260902062238 12 131 0.0 0.0 0.00 0.00 0.00 99 1009.9
20260902061737 12 131 0.0 0.0 0.00 0.00 0.00 99 1009.7
20260902061232 12 131 0.0 0.0 0.00 0.00 0.00 99 1009.9
20260902060730 12 131 0.0 0.0 0.00 0.00 0.00 99 1010.0
20260902060225 12 131 0.0 0.0 0.00 0.00 0.00 99 1010.0
20260902055720 12 131 0.0 0.0 0.00 0.00 0.00 99 1010.0
20260902055216 12 131 0.0 0.0 0.00 0.00 0.00 99 1009.9
20260902054711 12 131 0.0 0.0 0.00 0.00 0.00 99 1010.0
20260902054207 12 131 0.0 0.0 0.00 0.00 0.00 99 1010.2
20260902053702 12 131 0.0 0.0 0.00 0.00 0.00 99 1010.1
20260902053202 13 131 0.0 0.0 0.00 0.00 0.00 99 1010.3
20260902052701 13 131 0.0 0.0 0.00 0.00 0.00 99 1010.2
20260902052157 13 131 0.0 0.0 0.00 0.00 0.00 99 1010.1
20260902051655 13 129 0.0 0.0 0.00 0.00 0.00 99 1010.3
20260902051150 13 148 0.0 0.0 0.00 0.00 0.00 99 1010.4
20260902050645 13 167 0.0 0.0 0.00 0.00 0.00 99 1010.6
20260902050141 13 166 0.0 0.0 0.00 0.00 0.00 99 1010.3
20260902045635 13 131 0.0 0.0 0.00 0.00 0.00 99 1010.4
20260902045132 13 131 0.0 0.0 0.00 0.00 0.00 99 1010.5
20260902044632 13 131 0.0 0.0 0.00 0.00 0.00 98 1010.3
20260902044128 14 131 0.0 0.0 0.00 0.00 0.00 98 1010.3
20260902043623 14 130 0.0 0.0 0.00 0.00 0.00 98 1010.4
20260902043118 15 128 0.0 0.0 0.00 0.00 0.00 98 1010.6
20260902042617 15 137 0.0 0.0 0.00 0.00 0.00 98 1010.5
20260902042113 15 137 0.0 0.0 0.00 0.00 0.00 97 1010.8
20260902041612 15 137 0.0 0.0 0.00 0.00 0.00 98 1010.5
20260902041108 15 137 0.0 0.0 0.00 0.00 0.00 98 1010.6
20260902040608 15 138 0.0 0.0 0.00 0.00 0.00 97 1010.5
20260902035601 15 116 0.0 0.0 0.00 0.00 0.00 97 1010.4
20260902035056 15 106 0.0 0.0 0.00 0.00 0.00 97 1010.5
20260902034555 15 142 0.0 0.0 0.00 0.00 0.00 97 1010.7
20260902034055 15 173 0.0 0.0 0.00 0.00 0.00 97 1010.6
20260902033554 15 249 0.0 0.0 0.00 0.00 0.00 97 1010.5
20260902033049 15 251 0.0 0.0 0.00 0.00 0.00 97 1010.5
20260902032548 15 288 0.0 0.0 0.00 0.00 0.00 97 1010.2
20260902032043 15 275 0.0 0.0 0.00 0.00 0.00 96 1010.4
20260902031538 15 52 0.0 0.0 0.00 0.00 0.00 96 1010.4
20260902031034 15 86 0.0 0.0 0.00 0.00 0.00 96 1010.6
20260902030529 15 117 0.0 0.0 0.00 0.00 0.00 96 1010.4
20260902030028 15 97 1.6 1.6 0.00 0.00 0.00 95 1010.4
20260902025529 15 187 0.0 0.0 0.00 0.00 0.00 95 1010.5
20260902025024 15 72 0.0 0.0 0.00 0.00 0.00 95 1010.6
20260902024520 16 170 1.6 3.2 0.00 0.00 0.00 95 1010.3
20260902024019 16 43 1.6 3.2 0.00 0.00 0.00 95 1010.2
20260902023515 16 144 1.6 3.2 0.00 0.00 0.00 96 1010.2
20260902023016 16 65 3.2 3.2 0.00 0.00 0.00 95 1010.4
20260902022515 16 114 0.0 3.2 0.00 0.00 0.00 95 1010.5
20260902022012 16 83 0.0 0.0 0.00 0.00 0.00 95 1010.3
20260902021507 16 166 0.0 0.0 0.00 0.00 0.00 95 1010.2
20260902021002 16 107 0.0 0.0 0.00 0.00 0.00 95 1010.4
20260902020458 16 106 0.0 0.0 0.00 0.00 0.00 95 1010.5
20260902015953 16 106 0.0 0.0 0.00 0.00 0.00 95 1010.3
20260902015449 16 67 0.0 0.0 0.00 0.00 0.00 94 1010.3
20260902014944 16 147 0.0 0.0 0.00 0.00 0.00 93 1010.3
20260902014441 16 147 0.0 0.0 0.00 0.00 0.00 93 1010.3
20260902013939 16 138 0.0 0.0 0.00 0.00 0.00 93 1010.3
20260902013435 16 171 0.0 0.0 0.00 0.00 0.00 93 1010.2
20260902012930 16 244 0.0 0.0 0.00 0.00 0.00 93 1010.2
20260902012426 16 313 0.0 0.0 0.00 0.00 0.00 93 1010.0
20260902011922 16 277 0.0 1.6 0.00 0.00 0.00 93 1010.5
20260902011416 16 244 0.0 0.0 0.00 0.00 0.00 92 1010.4
20260902010916 16 242 0.0 0.0 0.00 0.00 0.00 92 1010.3
20260902010411 16 279 0.0 0.0 0.00 0.00 0.00 92 1010.1
20260902005910 16 257 0.0 0.0 0.00 0.00 0.00 92 1010.2
20260902005409 16 261 0.0 0.0 0.00 0.00 0.00 92 1010.1
20260902004906 16 264 0.0 0.0 0.00 0.00 0.00 93 1010.2
20260902004405 16 164 0.0 0.0 0.00 0.00 0.00 93 1010.2
20260902003901 16 251 0.0 1.6 0.00 0.00 0.00 93 1010.3
20260902003401 16 339 0.0 0.0 0.00 0.00 0.00 93 1010.2
20260902002857 16 263 0.0 0.0 0.00 0.00 0.00 93 1010.2
20260902002356 17 279 0.0 4.8 0.00 0.00 0.00 92 1010.0
20260902001852 17 303 1.6 4.8 0.00 0.00 0.00 91 1010.2
20260902001347 17 252 3.2 3.2 0.00 0.00 0.00 89 1010.1
20260902000842 17 273 0.0 1.6 0.00 0.00 0.00 90 1010.1
20260902000342 17 276 1.6 4.8 0.00 0.00 0.00 88 1010.1
20260901235837 18 315 3.2 4.8 0.00 0.00 0.00 87 1010.2
20260901235336 18 310 3.2 4.8 0.00 0.00 0.00 88 1010.2
20260901234832 18 289 3.2 4.8 0.00 0.00 0.00 86 1010.1
20260901234332 18 237 1.6 3.2 0.00 0.00 0.00 83 1010.4
20260901233827 18 44 3.2 3.2 0.00 0.00 0.00 85 1010.3
20260901233322 18 64 3.2 4.8 0.00 0.00 0.00 85 1010.1
20260901232818 18 74 0.0 3.2 0.00 0.00 0.00 86 1010.1
20260901232313 18 91 3.2 9.7 0.00 0.00 0.00 85 1010.2
20260901231809 18 100 1.6 9.7 0.00 0.00 0.00 84 1010.0
20260901231305 18 83 1.6 3.2 0.00 0.00 0.00 81 1010.3
20260901230802 18 59 1.6 4.8 0.00 0.00 0.00 80 1010.3
20260901230300 18 76 3.2 6.4 0.00 0.00 0.00 81 1010.4
20260901225756 19 195 0.0 3.2 0.00 0.00 0.00 77 1010.2
20260901225250 18 205 0.0 3.2 0.00 0.00 0.00 78 1010.3
20260901224746 19 218 0.0 1.6 0.00 0.00 0.00 79 1010.4
20260901224242 19 61 0.0 3.2 0.00 0.00 0.00 80 1010.4